Regional Weather Roundup
Issued by NWS

Home | Current Version | Previous Version | Text Only | Print | Product List | Glossary Off
Versions: 1 2 3 4 5 6 7 8 9 10 11 12 13 14 15 16 17 18 19 20 21 22 23 24 25 26 27 28 29 30 31 32 33 34 35 36 37 38 39 40 41 42 43 44 45 46 47 48 49 50

000
ASUS43 KLSX 162207
RWRMO

WEATHER SUMMARY FOR MISSOURI
NATIONAL WEATHER SERVICE SPRINGFIELD MO
400 PM CST SAT DEC 16 2017

NOTE: "FAIR" INDICATES FEW OR NO CLOUDS BELOW 12,000 FEET WITH NO
       SIGNIFICANT WEATHER AND/OR OBSTRUCTIONS TO VISIBILITY.
       CURRENT SKY AND/OR WEATHER CONDITIONS ARE NOT AVAILABLE FOR
       CHILLICOTHE AND FARMINGTON.

MOZ001>031-035>038-043-044-053-054-162300-
...NORTHERN AND WESTERN MISSOURI...

CITY           SKY/WX    TMP DP  RH WIND       PRES   REMARKS
KANSAS CTY INT CLEAR     57  27  31 S12G18    29.88R
KANSAS C DTWN  CLEAR     60  27  28 SW13      29.88R
LEE`S SUMMIT   CLEAR     59  26  28 SW20      29.89R
ST JOSEPH      CLEAR     56  29  35 S6        29.88R
CHILLICOTHE      N/A     57  27  31 S8        29.89R
KIRKSVILLE     CLEAR     55  30  38 SW7       29.89R

$$
MOZ066>068-077>081-088>096-101>105-162300-
...SOUTHWEST MISSOURI...

CITY           SKY/WX    TMP DP  RH WIND       PRES   REMARKS
SPRINGFIELD    CLOUDY    56  23  27 SW12      29.98R
JOPLIN         CLOUDY    57  24  28 SW18      29.97R
BRANSON        MOCLDY    57  21  24 SW7       30.02S

$$
MOZ032>034-039>042-045>050-055>058-069>072-162300-
...CENTRAL MISSOURI...

CITY           SKY/WX    TMP DP  RH WIND       PRES   REMARKS
COLUMBIA       CLEAR     59  24  26 SW15      29.93R
JEFFERSON CITY CLEAR     61  24  24 SW13G20   29.94R
ROLLA          CLOUDY    56  25  30 SW16      29.97R
SEDALIA        CLEAR     60  27  28 SW14G24   29.94R
WHITEMAN AFB   PTCLDY    59  24  26 SW16G25   29.87R
WARRENSBURG    CLEAR     59  27  29 S14       29.90R
OSAGE BEACH    CLOUDY    58  24  27 SW14      29.97R

$$
MOZ051-052-059>065-162300-
...EAST CENTRAL MISSOURI...

CITY           SKY/WX    TMP DP  RH WIND       PRES   REMARKS
ST LOUIS INTL  PTCLDY    60  26  27 SW12      29.96S
SPIRIT OF STL  PTCLDY    60  26  27 S7        29.95S
ST CHARLES     CLEAR     60  25  26 S10       29.95R

$$
MOZ072>076-082>087-097>100-106>115-162300-
...SOUTH CENTRAL AND SOUTHEAST MISSOURI...

CITY           SKY/WX    TMP DP  RH WIND       PRES   REMARKS
CAPE GIRARDEAU CLEAR     50  29  44 S15       30.09R
FARMINGTON     CLOUDY    55  29  36 S14       30.02R
POPLAR BLUFF   CLOUDY    51  29  42 SW13      30.09R
WEST PLAINS    CLOUDY    53  24  32 S8        30.04R

$$


USA.gov is the U.S. government's official web portal to all federal, state and local government web resources and services.